Flag for Australia Weather past 2 weeks in Hobart, Tasmania, Australia

59 °F

Scattered clouds.

Feels Like: 55 °F
Forecast: 50 / 69 °F
Wind: 22 mph from Northwest

Location: Hobart Airport

Current Time: Nov 27, 2015 at 12:25:54 PM

Latest Report: Nov 27, 2015 at 12:00 PM

Visibility: N/A

Pressure: 29.71 "Hg

Humidity: 36%

Dew point: 32 °F

Location of HobartLocation

Historic Weather in Hobart — Graph


Hobart temperature yesterday

Maximum temperature yesterday: 57 °F (at 12:00 AM)
Minimum temperature yesterday: 43 °F (at 8:30 PM)
Average temperature yesterday: 51 °F

Past Weeks' High & Low Weather Summary

High79 °F (Nov 19, 10:00 AM)100% (Nov 16, 6:00 AM)30.18 "Hg (Nov 16, 6:00 AM)
Low43 °F (Nov 16, 6:00 AM)15% (Nov 19, 5:30 PM)29.12 "Hg (Nov 25, 7:00 PM)
Average59 °F56%29.78 "Hg
* Reported Nov 12 11:00 AM — Nov 27 11:00 AM, Hobart, Weather by CustomWeather, © 2015

Note: Actual official high and low records may vary slightly from our data, if they occured in-between our weather recording intervals... More about our weather records


Hobart weather history for previous 24 hours

Time TempWeatherWind HumidityBarometerVisibility
11:00 AM
Fri, Nov 27
57 °FScattered showers. Scattered clouds.21 mph39%29.71 "HgN/A
10:00 AM55 °FScattered clouds.20 mph38%29.71 "HgN/A
9:00 AM55 °FScattered clouds.17 mph41%29.71 "HgN/A
8:55 AM55 °FScattered clouds.17 mph38%29.71 "HgN/A
8:30 AM54 °FPassing clouds.17 mph44%29.71 "HgN/A
8:00 AM50 °FPassing clouds.16 mph50%29.71 "HgN/A
7:30 AM48 °FPassing clouds.18 mph58%29.68 "HgN/A
7:00 AM48 °FPassing clouds.17 mph58%29.68 "HgN/A
6:00 AM46 °FScattered clouds.12 mph62%29.68 "HgN/A
5:30 AM46 °FPartly sunny.10 mph62%29.68 "HgN/A
5:00 AM45 °FPassing clouds.15 mph66%29.65 "HgN/A
4:30 AM45 °FPassing clouds.14 mph66%29.65 "HgN/A
4:00 AM45 °FPassing clouds.18 mph71%29.65 "HgN/A
3:30 AM45 °FPassing clouds.17 mph71%29.65 "HgN/A
3:00 AM45 °FPassing clouds.13 mph71%29.65 "HgN/A
2:30 AM45 °FPassing clouds.17 mph71%29.65 "HgN/A
2:00 AM45 °FPassing clouds.14 mph71%29.65 "HgN/A
1:30 AM45 °FPassing clouds.17 mph71%29.65 "HgN/A
1:00 AM45 °FPassing clouds.20 mph71%29.65 "HgN/A
12:30 AM43 °FPassing clouds.20 mph76%29.65 "HgN/A
12:00 AM43 °FPartly cloudy.23 mph76%29.65 "HgN/A
11:30 PM
Thu, Nov 26
43 °FPassing clouds.22 mph76%29.65 "HgN/A
11:00 PM43 °FPassing clouds.16 mph76%29.68 "HgN/A
10:00 PM43 °FSprinkles. Passing clouds.17 mph71%29.68 "HgN/A
9:00 PM45 °FPassing clouds.15 mph66%29.65 "HgN/A
8:30 PM43 °FPassing clouds.23 mph76%29.65 "HgN/A
8:00 PM50 °FPassing clouds.17 mph28%29.62 "HgN/A
7:30 PM50 °FScattered clouds.17 mph30%29.62 "HgN/A
7:00 PM50 °FPartly sunny.8 mph47%29.59 "HgN/A
6:30 PM50 °FScattered clouds.17 mph43%29.59 "HgN/A
6:00 PM52 °FPassing clouds.20 mph35%29.56 "HgN/A
5:00 PM48 °FScattered clouds.21 mph50%29.53 "HgN/A
4:49 PM48 °FScattered showers. Partly sunny.17 mph46%29.53 "HgN/A
4:30 PM52 °FScattered showers. Scattered clouds.16 mph38%29.53 "HgN/A
4:00 PM52 °FScattered clouds.29 mph32%29.50 "HgN/A
3:00 PM48 °FScattered showers. Partly sunny.28 mph54%29.47 "HgN/A
2:00 PM54 °FPartly sunny.20 mph33%29.45 "HgN/A
1:30 PM52 °FScattered showers. Broken clouds.17 mph35%29.47 "HgN/A
1:00 PM46 °FScattered showers. Broken clouds.22 mph62%29.47 "HgN/A
12:30 PM50 °FSprinkles. Scattered clouds.23 mph43%29.42 "HgN/A
12:00 PM52 °FScattered showers. Clear.21 mph44%29.42 "HgN/A
Weather by CustomWeather, © 2015

See weather overviewHow to use our weather pages